GW4684 Weather Reports


time (UTC)temp
C
wind
direction
speed
KPH
gust
KPH
rain 1hr
cm
rain 24hr
cm
rain mn
cm
humidity
%
barometer
mb
20260906191521 28 178 3.2 12.9 0.00 0.00 0.00 66 1019.1
20260906191003 28 243 1.6 14.5 0.00 0.00 0.00 65 1019.2
20260906190509 28 182 4.8 14.5 0.00 0.00 0.00 65 1019.3
20260906190023 28 181 4.8 14.5 0.00 0.00 0.00 70 1019.1
20260906185504 28 183 3.2 14.5 0.00 0.00 0.00 67 1019.3
20260906185008 28 111 0.0 12.9 0.00 0.00 0.00 67 1019.3
20260906184531 27 180 6.4 12.9 0.00 0.00 0.00 69 1019.4
20260906184003 27 157 1.6 16.1 0.00 0.00 0.00 69 1019.4
20260906183508 27 173 6.4 16.1 0.00 0.00 0.00 69 1019.4
20260906183033 27 175 3.2 12.9 0.00 0.00 0.00 71 1019.5
20260906182505 27 237 1.6 14.5 0.00 0.00 0.00 70 1019.5
20260906182012 26 155 1.6 14.5 0.00 0.00 0.00 72 1019.7
20260906181537 26 144 8.0 19.3 0.00 0.00 0.00 70 1019.7
20260906181007 26 134 1.6 19.3 0.00 0.00 0.00 70 1019.9
20260906180511 27 171 6.4 17.7 0.00 0.00 0.00 72 1020.0
20260906180003 26 144 4.8 12.9 0.00 0.00 0.00 74 1020.0
20260906175504 26 183 3.2 11.3 0.00 0.00 0.00 76 1020.2
20260906175011 26 217 1.6 17.7 0.00 0.00 0.00 72 1020.2
20260906174503 26 225 8.0 17.7 0.00 0.00 0.00 73 1020.3
20260906174008 26 183 3.2 14.5 0.00 0.00 0.00 72 1020.4
20260906173511 26 171 4.8 14.5 0.00 0.00 0.00 72 1020.5
20260906173004 26 186 4.8 11.3 0.00 0.00 0.00 74 1020.6
20260906172506 26 173 4.8 17.7 0.00 0.00 0.00 73 1020.8
20260906172012 26 208 1.6 17.7 0.00 0.00 0.00 76 1020.8
20260906171503 26 175 4.8 17.7 0.00 0.00 0.00 74 1021.0
20260906171006 26 192 3.2 16.1 0.00 0.00 0.00 76 1020.9
20260906170512 25 211 6.4 16.1 0.00 0.00 0.00 76 1021.0
20260906170005 25 163 1.6 16.1 0.00 0.00 0.00 76 1021.0
20260906165512 25 156 4.8 14.5 0.00 0.00 0.00 79 1021.1
20260906165015 25 240 0.0 11.3 0.00 0.00 0.00 82 1021.1
20260906164504 25 163 4.8 16.1 0.00 0.00 0.00 80 1021.1
20260906164009 24 203 1.6 16.1 0.00 0.00 0.00 81 1021.0
20260906163516 23 154 4.8 14.5 0.00 0.00 0.00 81 1021.0
20260906163008 23 174 4.8 11.3 0.00 0.00 0.00 81 1021.0
20260906162513 23 175 1.6 11.3 0.00 0.00 0.00 83 1021.0
20260906162012 22 175 3.2 8.0 0.00 0.00 0.00 84 1020.9
20260906161509 22 171 0.0 9.7 0.00 0.00 0.00 86 1021.0
20260906161010 21 203 1.6 9.7 0.00 0.00 0.00 87 1021.0
20260906160514 21 153 3.2 11.3 0.00 0.00 0.00 88 1021.1
20260906160008 21 169 3.2 11.3 0.00 0.00 0.00 86 1021.0
20260906155517 20 161 3.2 9.7 0.00 0.00 0.00 87 1020.9
20260906155016 20 211 1.6 6.4 0.00 0.00 0.00 87 1020.9
20260906154510 20 254 0.0 9.7 0.00 0.00 0.00 89 1020.8
20260906154011 20 155 3.2 11.3 0.00 0.00 0.00 89 1020.8
20260906153517 19 189 3.2 11.3 0.00 0.00 0.00 89 1020.9
20260906153022 19 158 6.4 11.3 0.00 0.00 0.00 89 1020.9
20260906152514 19 195 3.2 11.3 0.00 0.00 0.00 89 1021.0
20260906152015 18 138 3.2 11.3 0.00 0.00 0.00 89 1021.0
20260906151510 18 142 6.4 12.9 0.00 0.00 0.00 90 1021.0
20260906151018 18 179 4.8 12.9 0.00 0.00 0.00 91 1021.0
20260906150518 18 167 0.0 12.9 0.00 0.00 0.00 91 1020.8
20260906150014 18 185 6.4 11.3 0.00 0.00 0.00 91 1020.8
20260906145515 17 158 4.8 11.3 0.00 0.00 0.00 92 1020.8
20260906145014 17 126 3.2 11.3 0.00 0.00 0.00 92 1020.7
20260906144520 17 161 0.0 9.7 0.00 0.00 0.00 92 1020.9
20260906144015 17 161 6.4 9.7 0.00 0.00 0.00 93 1020.9
20260906143504 17 165 4.8 11.3 0.00 0.00 0.00 92 1020.9
20260906143016 16 136 3.2 11.3 0.00 0.00 0.00 93 1020.8
20260906142516 16 156 3.2 12.9 0.00 0.00 0.00 94 1020.8
20260906142004 16 159 1.6 12.9 0.00 0.00 0.00 95 1020.9
20260906141523 15 188 3.2 8.0 0.00 0.00 0.00 95 1021.0
20260906141014 15 157 1.6 11.3 0.00 0.00 0.00 95 1021.1
20260906140509 15 189 1.6 11.3 0.00 0.00 0.00 95 1021.5
20260906140019 15 156 4.8 9.7 0.00 0.00 0.00 96 1021.5
20260906135517 15 155 0.0 9.7 0.00 0.00 0.00 96 1021.5
20260906135007 15 140 0.0 8.0 0.00 0.00 0.00 96 1021.6
20260906134520 15 155 3.2 8.0 0.00 0.00 0.00 96 1021.5
20260906134014 15 188 3.2 6.4 0.00 0.00 0.00 96 1021.5
20260906133508 15 300 0.0 3.2 0.00 0.00 0.00 96 1021.7
20260906133023 15 300 0.0 3.2 0.00 0.00 0.00 96 1021.7
20260906132516 15 300 1.6 3.2 0.00 0.00 0.00 96 1021.9
20260906132007 14 77 0.0 11.3 0.00 0.00 0.00 96 1021.8
20260906131529 14 165 3.2 12.9 0.00 0.00 0.00 96 1021.1
20260906131018 14 190 3.2 12.9 0.00 0.00 0.00 96 1020.7
20260906130508 14 153 3.2 11.3 0.00 0.00 0.00 96 1020.8
20260906130025 14 117 3.2 11.3 0.00 0.00 0.00 96 1020.9
20260906125516 14 150 3.2 9.7 0.00 0.00 0.00 96 1020.9
20260906125011 14 161 4.8 9.7 0.00 0.00 0.00 96 1021.1
20260906124535 14 159 3.2 6.4 0.00 0.00 0.00 96 1021.3
20260906124018 14 158 0.0 6.4 0.00 0.00 0.00 96 1021.5
20260906123510 14 144 1.6 6.4 0.00 0.00 0.00 96 1021.3
20260906123034 13 149 0.0 4.8 0.00 0.00 0.00 96 1021.4
20260906122519 13 149 1.6 4.8 0.00 0.00 0.00 96 1021.4
20260906122012 13 149 0.0 0.0 0.00 0.03 0.00 96 1021.3
20260906121532 13 149 0.0 3.2 0.00 0.03 0.00 96 1021.1
20260906121017 13 149 0.0 3.2 0.00 0.03 0.00 96 1021.0
20260906120515 13 149 0.0 3.2 0.00 0.03 0.00 96 1020.9
20260906120031 13 149 0.0 3.2 0.00 0.03 0.00 96 1020.8
20260906115518 13 149 1.6 4.8 0.00 0.03 0.00 96 1020.7
20260906115011 13 141 1.6 6.4 0.00 0.03 0.00 96 1020.7
20260906114528 13 85 0.0 6.4 0.00 0.03 0.00 96 1020.6
20260906114017 13 84 3.2 6.4 0.00 0.03 0.00 96 1020.6
20260906113514 13 135 1.6 3.2 0.00 0.03 0.00 96 1020.5
20260906113030 13 135 1.6 3.2 0.00 0.03 0.00 96 1020.6
20260906112515 13 135 0.0 3.2 0.00 0.03 0.00 96 1020.6
20260906112017 13 135 0.0 4.8 0.00 0.03 0.00 96 1020.7
20260906111532 13 152 0.0 4.8 0.00 0.03 0.00 96 1020.6
20260906111011 13 160 0.0 4.8 0.00 0.03 0.00 96 1020.6
20260906110512 13 160 0.0 4.8 0.00 0.03 0.00 96 1020.4
20260906110031 13 173 1.6 6.4 0.00 0.03 0.00 96 1020.3
20260906105510 13 155 1.6 6.4 0.00 0.03 0.00 96 1020.1
20260906105014 13 153 1.6 6.4 0.00 0.03 0.00 96 1019.8
20260906104532 13 145 0.0 4.8 0.00 0.03 0.00 96 1019.7
20260906104012 13 147 1.6 8.0 0.00 0.03 0.00 96 1019.7
20260906103514 13 143 0.0 8.0 0.00 0.03 0.00 96 1019.7
20260906103042 13 184 0.0 6.4 0.00 0.03 0.00 96 1019.5
20260906102516 13 136 3.2 6.4 0.00 0.03 0.00 96 1019.5
20260906102016 13 108 0.0 8.0 0.00 0.03 0.00 96 1019.7
20260906101534 13 156 1.6 8.0 0.00 0.03 0.00 96 1019.7
20260906101003 13 145 3.2 6.4 0.00 0.03 0.00 95 1019.7
20260906100503 13 143 0.0 4.8 0.00 0.03 0.00 95 1019.7
20260906100023 13 143 1.6 4.8 0.00 0.03 0.00 95 1019.8
20260906095502 13 127 0.0 4.8 0.00 0.03 0.00 95 1019.8
20260906095003 13 105 0.0 4.8 0.00 0.03 0.00 95 1019.8
20260906094512 13 105 0.0 4.8 0.00 0.03 0.00 95 1019.9
20260906094003 13 103 0.0 3.2 0.00 0.03 0.00 95 1019.9
20260906093506 14 103 0.0 4.8 0.00 0.03 0.00 95 1019.8
20260906093016 14 142 1.6 4.8 0.00 0.03 0.00 96 1019.8
20260906092502 14 107 1.6 3.2 0.00 0.03 0.00 96 1019.9
20260906092006 14 92 0.0 3.2 0.00 0.03 0.00 96 1019.9
20260906091517 14 90 1.6 3.2 0.00 0.03 0.00 96 1019.9
20260906091003 14 102 1.6 6.4 0.00 0.03 0.00 96 1020.0
20260906090507 14 94 1.6 9.7 0.00 0.03 0.00 96 1019.8
20260906090015 14 140 1.6 9.7 0.00 0.03 0.00 96 1019.7
20260906085505 14 122 1.6 8.0 0.00 0.03 0.00 95 1019.7
20260906085003 14 147 0.0 4.8 0.00 0.03 0.00 95 1019.6
20260906084518 14 150 0.0 3.2 0.00 0.03 0.00 95 1019.6
20260906084005 14 97 0.0 0.0 0.00 0.03 0.00 95 1019.7
20260906083507 14 94 0.0 6.4 0.00 0.03 0.00 95 1019.8
20260906083023 14 94 0.0 6.4 0.00 0.03 0.00 95 1019.8
20260906082502 14 137 0.0 6.4 0.00 0.03 0.00 95 1019.8
20260906082006 15 112 0.0 4.8 0.00 0.03 0.00 95 1019.8
20260906081526 15 136 0.0 4.8 0.00 0.03 0.00 96 1019.8
20260906081003 14 88 1.6 6.4 0.00 0.03 0.00 95 1019.8
20260906080508 14 130 1.6 6.4 0.00 0.03 0.00 95 1019.7
20260906080002 15 107 0.0 4.8 0.00 0.03 0.00 95 1019.8
20260906075502 15 141 0.0 3.2 0.00 0.03 0.00 95 1019.8
20260906075008 15 104 0.0 6.4 0.00 0.03 0.00 95 1019.7
20260906074504 15 92 3.2 6.4 0.00 0.03 0.00 95 1019.9
20260906074003 15 94 1.6 3.2 0.00 0.03 0.00 95 1020.0
20260906073509 15 109 0.0 4.8 0.00 0.03 0.00 95 1019.9
20260906073004 15 150 1.6 4.8 0.00 0.03 0.00 95 1019.9
20260906072504 15 133 0.0 4.8 0.00 0.03 0.00 95 1020.1
20260906072013 15 94 0.0 4.8 0.00 0.03 0.00 95 1020.1
20260906071503 15 95 1.6 3.2 0.00 0.03 0.00 95 1020.3
20260906071007 15 137 0.0 4.8 0.00 0.03 0.00 95 1020.2
20260906070510 15 138 1.6 4.8 0.00 0.03 0.00 94 1020.2
20260906070003 15 137 1.6 4.8 0.00 0.03 0.00 95 1020.2
20260906065508 15 143 0.0 4.8 0.00 0.03 0.00 95 1020.4
20260906065015 15 143 1.6 6.4 0.00 0.03 0.00 94 1020.3
20260906064504 15 135 1.6 6.4 0.00 0.03 0.00 94 1020.3
20260906064008 15 157 3.2 4.8 0.00 0.03 0.00 94 1020.4
20260906063515 15 146 1.6 4.8 0.00 0.03 0.00 94 1020.5
20260906063003 15 153 1.6 3.2 0.00 0.03 0.00 94 1020.5
20260906062505 15 135 0.0 3.2 0.00 0.03 0.00 94 1020.6
20260906062014 15 167 0.0 0.0 0.00 0.03 0.00 95 1020.6
20260906061509 16 167 0.0 0.0 0.00 0.03 0.00 95 1020.9
20260906061016 16 167 0.0 0.0 0.00 0.03 0.00 95 1020.7
20260906060516 16 167 0.0 0.0 0.00 0.03 0.00 94 1020.7
20260906060005 16 167 0.0 0.0 0.00 0.03 0.00 94 1020.6
20260906055513 16 167 0.0 0.0 0.00 0.03 0.00 94 1020.4
20260906055016 16 167 0.0 0.0 0.00 0.03 0.00 94 1020.4
20260906054522 16 167 0.0 0.0 0.00 0.03 0.00 94 1020.3
20260906054014 16 167 0.0 0.0 0.00 0.03 0.00 94 1020.3
20260906053516 16 167 0.0 4.8 0.00 0.03 0.00 94 1020.5
20260906053008 16 167 0.0 4.8 0.00 0.03 0.00 94 1020.4
20260906052512 16 167 1.6 4.8 0.00 0.03 0.00 94 1020.3
20260906052015 16 147 1.6 8.0 0.00 0.03 0.00 94 1020.2
20260906051510 16 166 1.6 12.9 0.00 0.03 0.00 94 1020.2
20260906051013 16 178 3.2 12.9 0.00 0.03 0.00 94 1020.2
20260906050521 16 140 3.2 8.0 0.00 0.03 0.00 94 1020.1
20260906050010 16 161 3.2 8.0 0.00 0.03 0.00 93 1020.2
20260906045512 16 156 1.6 4.8 0.00 0.03 0.03 93 1020.2
20260906045014 16 156 0.0 6.4 0.00 0.03 0.03 93 1020.3
20260906044512 16 182 1.6 6.4 0.00 0.03 0.03 92 1020.2
20260906044011 16 155 1.6 4.8 0.00 0.03 0.03 92 1020.2
20260906043514 17 155 0.0 4.8 0.00 0.03 0.03 92 1020.3
20260906043020 17 155 0.0 6.4 0.00 0.03 0.03 92 1020.4
20260906042512 17 152 1.6 8.0 0.00 0.03 0.03 92 1020.3
20260906042004 17 182 3.2 9.7 0.00 0.03 0.03 92 1020.2
20260906041514 17 205 3.2 9.7 0.00 0.03 0.03 92 1020.2
20260906041016 17 177 0.0 11.3 0.00 0.03 0.03 92 1020.2
20260906040504 17 173 3.2 14.5 0.00 0.03 0.03 93 1020.1
20260906040013 17 177 8.0 14.5 0.00 0.03 0.03 93 1020.1
20260906035513 17 159 4.8 12.9 0.00 0.03 0.03 93 1020.4
20260906035006 17 194 6.4 12.9 0.00 0.03 0.03 93 1020.4
20260906034517 17 161 1.6 12.9 0.00 0.03 0.03 93 1020.4
20260906034014 17 156 4.8 12.9 0.00 0.03 0.03 93 1020.4
20260906033506 17 168 3.2 14.5 0.00 0.03 0.03 93 1020.4
20260906033018 17 164 4.8 12.9 0.00 0.03 0.03 93 1020.3
20260906032513 17 154 4.8 12.9 0.00 0.03 0.03 92 1020.3
20260906032011 17 134 4.8 16.1 0.00 0.03 0.03 92 1020.3
20260906031521 17 169 4.8 16.1 0.00 0.03 0.03 92 1020.3
20260906031020 17 155 6.4 11.3 0.00 0.03 0.03 92 1020.3
20260906030506 17 160 4.8 11.3 0.00 0.03 0.03 92 1020.2
20260906030020 17 166 3.2 11.3 0.00 0.05 0.03 92 1020.3
20260906025516 17 167 4.8 9.7 0.00 0.05 0.03 92 1020.3
20260906025008 17 211 4.8 8.0 0.00 0.05 0.03 92 1020.3
20260906024524 17 175 1.6 12.9 0.00 0.05 0.03 92 1020.2
20260906024018 17 167 3.2 12.9 0.00 0.05 0.03 92 1020.1
20260906023510 18 181 3.2 8.0 0.00 0.05 0.03 92 1020.1
20260906023025 18 171 0.0 8.0 0.00 0.05 0.03 92 1020.1
20260906022515 18 157 4.8 9.7 0.00 0.05 0.03 92 1020.0
20260906022011 18 177 3.2 11.3 0.00 0.05 0.03 92 1019.8
20260906021538 18 175 4.8 11.3 0.00 0.05 0.03 92 1019.6
20260906021018 18 150 4.8 11.3 0.00 0.05 0.03 91 1019.3
20260906020515 18 156 4.8 11.3 0.00 0.05 0.03 91 1019.1
20260906020025 18 148 3.2 11.3 0.00 0.05 0.03 91 1019.0
20260906015517 18 130 4.8 11.3 0.00 0.05 0.03 91 1019.1
20260906015011 18 161 0.0 9.7 0.00 0.05 0.03 91 1019.1
20260906014529 18 153 1.6 9.7 0.00 0.05 0.03 90 1018.9
20260906014020 18 102 3.2 9.7 0.00 0.05 0.03 90 1018.8
20260906013512 18 142 1.6 9.7 0.00 0.05 0.03 90 1018.7
20260906013038 18 113 1.6 11.3 0.00 0.05 0.03 90 1018.6
20260906012521 18 161 0.0 11.3 0.00 0.05 0.03 90 1018.5
20260906012012 18 178 4.8 11.3 0.00 0.05 0.03 89 1018.4
20260906011533 18 119 1.6 9.7 0.00 0.05 0.03 88 1018.3
20260906011006 18 132 0.0 4.8 0.00 0.05 0.03 88 1018.2
20260906010505 18 114 1.6 4.8 0.00 0.05 0.03 87 1018.3
20260906010005 19 140 0.0 6.4 0.00 0.05 0.03 87 1018.3
20260906005507 19 107 0.0 6.4 0.00 0.05 0.03 87 1018.5
20260906005003 19 139 0.0 6.4 0.00 0.05 0.03 86 1018.4
20260906004504 20 140 1.6 8.0 0.00 0.05 0.03 86 1018.4
20260906004010 20 150 1.6 12.9 0.00 0.05 0.03 85 1018.3
20260906003502 20 87 4.8 12.9 0.00 0.05 0.03 85 1018.3
20260906003015 20 136 3.2 12.9 0.00 0.05 0.03 85 1018.2
20260906002510 20 170 4.8 12.9 0.00 0.05 0.03 84 1018.1
20260906002003 20 156 4.8 16.1 0.00 0.05 0.03 84 1018.2
20260906001512 20 140 3.2 16.1 0.00 0.05 0.03 83 1018.2
20260906001012 21 130 6.4 17.7 0.00 0.05 0.03 84 1018.2
20260906000503 21 131 6.4 17.7 0.00 0.05 0.03 83 1018.2
20260906000010 21 153 6.4 12.9 0.00 0.05 0.03 83 1018.3
20260905235510 21 153 0.0 14.5 0.00 0.05 0.03 83 1018.4
20260905235003 21 141 1.6 16.1 0.00 0.05 0.03 83 1018.4
20260905234510 21 174 8.0 16.1 0.00 0.05 0.03 83 1018.6
20260905234014 21 119 6.4 16.1 0.00 0.05 0.03 83 1018.5
20260905233503 21 122 3.2 14.5 0.00 0.05 0.03 84 1018.5
20260905233017 21 188 3.2 11.3 0.00 0.05 0.03 84 1018.6
20260905232514 21 103 1.6 11.3 0.00 0.05 0.03 84 1018.6
20260905232004 21 143 1.6 14.5 0.00 0.05 0.03 84 1018.5
20260905231512 21 163 0.0 19.3 0.00 0.05 0.03 83 1018.4
20260905231013 21 159 9.7 19.3 0.00 0.05 0.03 83 1018.3
20260905230504 21 148 8.0 16.1 0.00 0.05 0.03 83 1018.1
20260905230014 21 150 3.2 19.3 0.00 0.05 0.03 84 1017.8
20260905225514 21 131 4.8 19.3 0.00 0.05 0.03 83 1018.0
20260905225003 21 177 6.4 17.7 0.00 0.05 0.03 83 1017.8
20260905224519 21 142 3.2 17.7 0.00 0.05 0.03 84 1018.1
20260905224014 21 189 1.6 17.7 0.00 0.05 0.03 83 1018.2
20260905223507 21 133 4.8 14.5 0.00 0.05 0.03 83 1018.2
20260905223018 21 134 1.6 12.9 0.00 0.05 0.03 82 1018.4
20260905222517 21 79 3.2 17.7 0.00 0.05 0.03 82 1018.4
20260905222007 21 129 8.0 17.7 0.00 0.05 0.03 82 1018.3
20260905221520 21 151 4.8 11.3 0.00 0.05 0.03 83 1018.6
20260905221015 21 119 1.6 17.7 0.00 0.05 0.03 81 1018.9
20260905220506 21 184 8.0 17.7 0.00 0.05 0.03 82 1018.6
20260905220018 21 150 1.6 9.7 0.00 0.05 0.03 83 1018.6
20260905215516 21 126 1.6 11.3 0.00 0.05 0.03 82 1018.9
20260905215006 21 168 4.8 11.3 0.00 0.05 0.03 82 1018.9
20260905214523 21 96 4.8 11.3 0.00 0.05 0.03 82 1018.8
20260905214004 21 111 3.2 12.9 0.00 0.05 0.03 83 1018.7
20260905213509 21 134 6.4 14.5 0.00 0.05 0.03 83 1018.7
20260905213025 21 167 6.4 14.5 0.00 0.05 0.03 83 1019.0
20260905212503 20 154 0.0 6.4 0.00 0.05 0.03 83 1019.2
20260905212007 20 163 0.0 6.4 0.00 0.05 0.03 83 1019.4
20260905211525 20 152 0.0 4.8 0.00 0.05 0.03 83 1019.6
20260905211004 20 197 0.0 3.2 0.00 0.05 0.03 83 1019.6
20260905210507 20 189 1.6 6.4 0.00 0.05 0.03 83 1019.7
20260905210027 20 179 0.0 6.4 0.00 0.05 0.03 82 1019.7
20260905205503 20 111 1.6 4.8 0.00 0.05 0.03 82 1019.7
20260905205011 20 159 0.0 6.4 0.00 0.05 0.03 84 1019.7
20260905204527 20 175 1.6 6.4 0.00 0.05 0.03 85 1019.8
20260905204005 20 103 1.6 6.4 0.00 0.05 0.03 84 1019.9
20260905203511 20 141 0.0 3.2 0.00 0.05 0.03 85 1019.9
20260905203028 20 75 0.0 3.2 0.00 0.05 0.03 85 1020.1
20260905202506 20 112 0.0 4.8 0.00 0.05 0.03 85 1020.2
20260905202010 20 112 1.6 4.8 0.00 0.05 0.03 85 1020.3
20260905201531 20 93 0.0 3.2 0.00 0.05 0.03 85 1020.4
20260905201007 20 59 0.0 3.2 0.00 0.05 0.03 86 1020.4
20260905200511 20 172 0.0 0.0 0.00 0.05 0.03 86 1020.4
20260905200034 20 172 0.0 0.0 0.00 0.05 0.03 85 1020.5
20260905195507 20 173 0.0 3.2 0.00 0.05 0.03 86 1020.4
20260905195013 20 172 0.0 8.0 0.00 0.05 0.03 87 1020.4
20260905194535 19 172 1.6 8.0 0.00 0.05 0.03 87 1020.3
20260905194009 19 103 1.6 4.8 0.00 0.05 0.03 87 1020.4
20260905193517 19 103 0.0 0.0 0.00 0.05 0.03 87 1020.5
20260905193034 19 103 0.0 3.2 0.00 0.05 0.03 88 1020.5
20260905192512 19 103 0.0 4.8 0.00 0.05 0.03 88 1020.5
20260905192014 19 145 0.0 4.8 0.00 0.05 0.03 88 1020.5